Погода Белый

Погода Белый : погода сейчас, прогноз погоды и архив. Всё, что Вы хотите узнать о погоде Белый!

Поиск расширенной информации на нашем сайте:

Другие новости

Новости СМИ2

Главная страница сайта

Новости сайта

03.07.2017

Напоминаем, что на нашем специализированном сайте Метеоцентр.Азия вы можете получить высокодетализированные автоматические прогнозы погоды по пунктам России, СНГ и мира в авиационном формате (включающие направление и скорость ветра, видимость, явления погоды, количество и форму облачности, нижнюю и верхнюю границу облачности).


Погода Белый - сегодня

Время (UTC), дата Ветер
(°,м/с) 
Видим.   Явления Облачность Т
(°С)
Тd
(°С)
f(%) Тe
(°С)
Pmin
(гПа)
dP
(гПа)
Po
(мм)
O2
(г/м3)
Тmin Tmax R s Состояние
почвы
06 19.04.18 350 (С) 4000 м  слаб. дождь  10/10 300 м 
[Frnb|Ns]
+6 +5 93 +4  1011.8  739  290  +5.4      мокрая 
09 19.04.18 340 (С) 20000 м  {дождь}  9/9 600 м 
[Sc]
+7 +5.2 88 +6  1012.7  739  290           
21 19.04.18 340 (С) 10 км    ясно 
+6.4 +1.3 70 +5  1017.1  1.2  742  292           
00 20.04.18 330 (СЗ) 10 км    ясно 
+4.5 +0.4 75 +3  1017.9  0.6  743  294           
03 20.04.18 330 (СЗ) 10 км    ясно 
+3 -0.6 77 +2  1019.2  1.1  744  296  +2.8         
09 20.04.18 350 (С) 20000 м    8/0 средняя, верхняя 
[Ac trans|Ci]
+13.5 +1.2 43 +13  1018.8  -0.3  744  286           
15 20.04.18 300 (СЗ) 20000 м    8/0 средняя 
[Ac trans]
+14.9 -0.6 35 +16  1015.5  -1.7  742  283           
21 20.04.18 260 (З) 10 км    9/0 средняя 
[Ac trans]
+10.9 +1.4 52 +10  1011.6  -2.6  739  286           
00 21.04.18 260 (З) 10 км    9/0 средняя 
[Ac trans]
+11.2 +3.4 59 +10  1008.7  -2.7  737  285           
06 21.04.18 250 (З) 5{11}  20000 м    3/0 верхняя 
[Ci fib]
+13.8 +6 59 +13  999.8  -4.7  730  279  +9        мокрая 
06 22.04.18 340 (С) 4000 м  слаб. дождь  10/10 300 м 
[Frnb|Ns]
+3.8 +2.7 93 +2  1002.8  1.1  732  290  +3.8      мокрая 
09 22.04.18 320 (СЗ) 4000 м  слаб. дождь  10/10 300 м 
[Frnb|Ns]
+5.5 +2.7 82 +3  1004.2  1.6  733  289           
18 22.04.18 020 (С) 4{13}  10 км  {ливн. осадки}  9/9 600 м 
[Sc]
+3.2 -4.3 58 +1  1011.6  2.9  738  294    +7.3  0.6     
21 22.04.18 040 (СВ) 10 км    8/8 600 м 
[Sc]
+1.9 -3.4 68 +1  1013.4  1.6  739  296           
00 23.04.18 340 (С) 10 км    ясно 
-0.6 -7.1 61 -1  1015  1.3  740  300           
03 23.04.18 300 (СЗ) 10 км    ясно 
-2 -5.9 75 -1  1016.4  1.2  741  302  -2.3         
09 23.04.18 360 (С) 20000 м    6/0 верхняя 
[Ci]
+6.2 -8.5 34 +5  1016.6  -0.3  742  293           
12 23.04.18 300 (СЗ) 20000 м    9/0 верхняя 
[Ci]
+8.7 -9.2 27 +9  1015.3  -1  741  290           
15 23.04.18 300 (СЗ) 20000 м    ясно 
+9.1 -8.3 28 +9  1014.3  -0.9  741  290           
21 23.04.18 тихо ()   10 км    ясно 
+0.3 -6 63 1014.8  -0.4  740  299           
00 24.04.18 тихо ()   10 км    ясно 
-3.1 -5.6 83 -3  1015.1  740  302           
09 24.04.18 220 (ЮЗ) 20000 м    9/9 600 м 
[Sc]
+10.5 -2.8 39 +10  1011  -0.9  738  287           
12 24.04.18 190 (Ю) 20000 м    9/9 600 м 
[Sc]
+10 -0.7 47 +9  1009.7  -1.3  737  287           
15 24.04.18 190 (Ю) 20000 м    9/9 600 м 
[Sc]
+8.5 +2.9 68 +8  1008.8  -0.9  737  287           
21 24.04.18 230 (ЮЗ) 10 км    9/9 600 м 
[Sc]
+5.8 +4.2 89 +7  1007.5  -0.8  735  289           
Время (UTC), дата Ветер
(°,м/с) 
Видим.   Явления Облачность Т
(°С)
Тd
(°С)
f(%) Тe
(°С)
Pmin
(гПа)
dP
(гПа)
Po
(мм)
O2
(г/м3)
Тmin Tmax R s Состояние
почвы

Для получения пояснительной информации подведите курсор к названию столбца.

ПОГОДА Белый - архив

Всё, что Вы хотите узнать о погоде Белый - удобно и подробно!

Выберите нужную дату (начиная с 1 января 2015* года) и нажмите кнопку "Найти".
Будут отображены архивные сводки погоды по пункту Белый, начиная с указанной даты.


Отображать данные в формате CSV (для использования в таблицах Excel)


Внимание! Наш архив погоды предназначен исключительно для личного некоммерческого использования в познавательных целях. Если Вам необходимы официальные справки о состоянии погоды (для производственных, юридических, коммерческих и т.п. целей), обращайтесь в органы Росгидромета.

*Примечание: данная дата относится к архиву по метеостанциям СССР (Россия, СНГ, Балтия).
Архив по метеостанциям Зарубежной Европы и Азии (кроме Китая) хранится 10 дней, по другим регионам земного шара (Китай, Африка, Америка, Австралия, Океания) - 1 день.

Белый - район местоположения метеостанции


Название, широта, долгота, высота метеостанции:
Белый 55.9°ш. 32.9°д. 222 м над ур. моря [Российская Федерация]

Дополнительная информация

В oтличие oт бoльшинства пoгoдных сайтoв мы публикуем пoдрoбную метеoинфoрмацию в детальнoм прoфессиoнальнoм фoрмате.

Характеристики температуры и влажнoсти вoздуха измеряются на высoте 2 м в тени вдали oт зданий и деревьев.
Скoрoсть ветра измеряется на высoте 10 м (на урoвне рoста челoвека скoрoсть ветра ниже в 1.5-2 раза). Если метеoстанция нахoдится в гoрoде или в лесу, тo скoрoсть ветра занижена на 2-4 м/с пo сравнению с oткрытым местoм. Скoрoсть ветра над акватoриями крупных рек и oзёр, а также на вершинах хoлмoв на 2-5 м/с выше, чем в oбычных услoвиях.
Атмoсфернoе давление в разных тoчках местнoсти мoжет значительнo oтличаться oт давления на метеoстанции, в зависимoсти oт услoвий рельефа (при пoдъёме на 10 м давление пoнижается примернo на 1 мм рт.ст.).